Location: Capannuccia
(43.7000°N, 11.3000°E)
Time: 10:44:18
(UTC+00:00)

STARLINK-2704 - Pass Details

Date: 30 July 2021
Orbit: 546 x 548 km, 53.1° (Epoch: 23 September)

Event Time Altitude Azimuth Distance (km) Brightness Sun altitude
Rises 20:04:52 0° 300° (WNW) 2,722 8.9 -13.4°
Reaches altitude 10° 20:07:12 10° 293° (WNW) 1,825 7.5 -13.8°
Maximum altitude 20:11:04 39° 224° (SW) 838 4.5 -14.3°
Enters shadow 20:13:21 21° 167° (SSE) 1,271 5.0 -14.6°
